Date String (YYYY-MM-DD hh:mm:ss) UTC,Instrument flags,Ambient pressure (hPa),Sample flow (lpm),Bypass flow (lpm),Sample temperature (°C),Ambient temperature (°C),ASC tube jacket temperature (°C),LED temperature (°C),Box temperature (°C),Sample RH (%),Span deviation,Mass concentration (μg/m³),Mass concentration (μg/m³),Mass concentration (μg/m³)
DateTimeUTC,F1_M11,P_M11,Q1_M11,Q2_M11,T1_M11,T2_M11,T3_M11,T4_M11,T5_M11,U1_M11,ZSPAN_M11,X0_M11,X2_M11,X1_M11
2022-01-03 01:00:00,,0828.7,4.99,0.00,26.8,26.0,00.0,36.1,28.5,06.3,0000.0,0000.10,0000.05,0000.02
2022-01-03 01:01:00,,0828.9,5.01,0.00,26.9,26.0,00.0,36.1,28.5,06.2,0000.0,0000.08,0000.04,0000.02
2022-01-03 01:02:00,,0829.1,4.99,0.00,26.9,26.0,00.0,36.0,28.5,06.2,0000.0,0000.08,0000.04,0000.02
2022-01-03 01:03:00,,0829.3,5.01,0.00,26.8,26.0,00.0,36.0,28.5,06.2,0000.0,0000.54,0000.04,0000.02
2022-01-03 01:04:00,,0829.2,5.00,0.00,26.8,26.0,00.0,36.0,28.4,06.4,0000.0,0001.25,0000.06,0000.01
2022-01-03 01:05:00,,0829.2,5.00,0.00,26.7,25.9,00.0,36.0,28.3,06.8,0000.0,0001.24,0000.05,0000.01
2022-01-03 01:06:00,,0828.9,5.00,0.00,26.7,25.7,00.0,35.9,28.2,07.0,0000.0,0001.31,0000.05,0000.01
2022-01-03 01:07:00,,0828.8,5.00,0.00,26.7,25.7,00.0,35.9,28.2,07.0,0000.0,0002.48,0000.05,0000.01
2022-01-03 01:08:00,,0828.9,5.01,0.00,26.7,25.7,00.0,35.9,28.2,07.0,0000.0,0003.25,0000.05,0000.01
2022-01-03 01:09:00,,0828.9,5.00,0.00,26.6,25.6,00.0,35.9,28.2,07.3,0000.0,0003.80,0000.05,0000.01
2022-01-03 01:10:00,,0828.9,5.00,0.00,26.6,25.6,00.0,35.9,28.2,07.5,0000.0,0003.86,0000.08,0000.01
2022-01-03 01:11:00,,0828.9,5.00,0.00,26.6,25.6,00.0,35.8,28.1,07.6,0000.0,0003.90,0000.09,0000.00
2022-01-03 01:12:00,,0828.8,5.01,0.00,26.6,25.6,00.0,35.8,28.1,07.6,0000.0,0003.90,0000.09,0000.00
2022-01-03 01:13:00,,0828.9,4.98,0.00,26.6,25.6,00.0,35.8,28.2,07.7,0000.0,0003.91,0000.10,0000.01
2022-01-03 01:14:00,,0828.9,5.01,0.00,26.5,25.6,00.0,35.8,28.2,07.7,0000.0,0003.39,0000.10,0000.01
2022-01-03 01:15:00,,0828.9,4.99,0.00,26.5,25.5,00.0,35.7,28.1,07.8,0000.0,0002.73,0000.07,0000.01
2022-01-03 01:16:00,,0828.9,5.01,0.00,26.5,25.5,00.0,35.7,28.1,08.1,0000.0,0002.73,0000.07,0000.01
2022-01-03 01:17:00,,0828.8,4.98,0.00,26.5,25.4,00.0,35.7,28.0,08.4,0000.0,0002.61,0000.07,0000.01
2022-01-03 01:18:00,,0828.9,5.02,0.00,26.4,25.5,00.0,35.7,28.0,08.7,0000.0,0001.62,0000.09,0000.01
2022-01-03 01:19:00,,0828.8,4.98,0.00,26.4,25.4,00.0,35.6,28.0,08.7,0000.0,0001.08,0000.10,0000.01
2022-01-03 01:20:00,,0828.9,5.01,0.00,26.4,25.4,00.0,35.6,28.0,08.8,0000.0,0000.35,0000.10,0000.01
2022-01-03 01:21:00,,0828.9,5.00,0.00,26.3,25.4,00.0,35.6,27.9,08.9,0000.0,0000.30,0000.08,0000.01
2022-01-03 01:22:00,,0828.9,5.00,0.00,26.3,25.3,00.0,35.6,27.9,09.0,0000.0,0000.27,0000.06,0000.01
2022-01-03 01:23:00,,0828.8,4.99,0.00,26.3,25.3,00.0,35.5,27.9,09.1,0000.0,0000.42,0000.07,0000.01
2022-01-03 01:24:00,,0829.0,5.00,0.00,26.3,25.3,00.0,35.5,27.9,09.0,0000.0,0000.53,0000.08,0000.00
2022-01-03 01:25:00,,0829.4,4.99,0.00,26.3,25.3,00.0,35.5,27.9,09.0,0000.0,0000.51,0000.07,0000.00
2022-01-03 01:26:00,,0829.3,5.01,0.00,26.3,25.4,00.0,35.5,27.9,08.8,0000.0,0000.51,0000.07,0000.00
2022-01-03 01:27:00,,0829.2,4.99,0.00,26.3,25.4,00.0,35.4,28.0,08.8,0000.0,0000.52,0000.07,0000.00
2022-01-03 01:28:00,,0829.0,5.01,0.00,26.3,25.5,00.0,35.4,28.0,08.3,0000.0,0000.50,0000.07,0000.00
2022-01-03 01:29:00,,0828.7,4.99,0.00,26.3,25.5,00.0,35.4,28.0,07.9,0000.0,0000.37,0000.04,0000.00
2022-01-03 01:30:00,,0828.7,5.01,0.00,26.3,25.6,00.0,35.4,28.1,07.7,0000.0,0000.30,0000.04,0000.00
2022-01-03 01:31:00,,0829.0,5.00,0.00,26.4,25.6,00.0,35.4,28.1,07.5,0000.0,0000.33,0000.05,0000.00
2022-01-03 01:32:00,,0829.1,4.98,0.00,26.4,25.7,00.0,35.4,28.1,07.3,0000.0,0000.33,0000.05,0000.00
2022-01-03 01:33:00,,0829.2,5.01,0.00,26.4,25.7,00.0,35.4,28.1,07.2,0000.0,0000.29,0000.05,0000.00
2022-01-03 01:34:00,,0829.0,4.99,0.00,26.4,25.7,00.0,35.4,28.1,07.2,0000.0,0000.13,0000.03,0000.00
2022-01-03 01:35:00,,0828.7,5.01,0.00,26.4,25.7,00.0,35.4,28.1,07.4,0000.0,0000.03,0000.02,0000.00
2022-01-03 01:36:00,,0829.1,5.00,0.00,26.4,25.7,00.0,35.4,28.1,07.6,0000.0,0000.03,0000.02,0000.00
2022-01-03 01:37:00,,0829.3,5.00,0.00,26.4,25.7,00.0,35.4,28.1,07.6,0000.0,0000.03,0000.02,0000.00
2022-01-03 01:38:00,,0829.4,5.00,0.00,26.4,25.8,00.0,35.4,28.2,07.6,0000.0,0000.13,0000.04,0000.00
2022-01-03 01:39:00,,0829.1,5.00,0.00,26.4,25.8,00.0,35.4,28.2,07.7,0000.0,0000.18,0000.04,0000.00
2022-01-03 01:40:00,,0828.8,4.99,0.00,26.5,25.8,00.0,35.4,28.2,07.6,0000.0,0000.24,0000.06,0000.00
2022-01-03 01:41:00,,0828.8,5.00,0.00,26.5,25.8,00.0,35.4,28.2,07.6,0000.0,0000.24,0000.07,0000.00
2022-01-03 01:42:00,,0828.9,5.01,0.00,26.5,25.8,00.0,35.4,28.2,07.2,0000.0,0000.22,0000.05,0000.00
2022-01-03 01:43:00,,0828.9,4.99,0.00,26.5,25.8,00.0,35.4,28.2,07.2,0000.0,0000.22,0000.05,0000.01
2022-01-03 01:44:00,,0828.8,5.01,0.00,26.5,25.8,00.0,35.4,28.2,07.3,0000.0,0000.22,0000.05,0000.01
2022-01-03 01:45:00,,0828.8,4.99,0.00,26.5,25.7,00.0,35.4,28.2,07.5,0000.0,0000.23,0000.06,0000.01
2022-01-03 01:46:00,,0828.8,5.00,0.00,26.4,25.7,00.0,35.4,28.1,07.5,0000.0,0000.24,0000.06,0000.01
2022-01-03 01:47:00,,0828.9,5.00,0.00,26.4,25.7,00.0,35.4,28.1,07.5,0000.0,0000.28,0000.07,0000.01
2022-01-03 01:48:00,,0828.9,5.00,0.00,26.4,25.7,00.0,35.4,28.1,07.5,0000.0,0000.28,0000.07,0000.01
2022-01-03 01:49:00,,0828.9,5.00,0.00,26.4,25.7,00.0,35.4,28.1,07.5,0000.0,0000.18,0000.06,0000.01
2022-01-03 01:50:00,,0828.9,5.01,0.00,26.4,25.7,00.0,35.4,28.1,07.7,0000.0,0000.13,0000.05,0000.01
2022-01-03 01:51:00,,0828.9,5.00,0.00,26.4,25.7,00.0,35.4,28.2,07.6,0000.0,0000.07,0000.03,0000.01
2022-01-03 01:52:00,,0828.9,4.99,0.00,26.4,25.7,00.0,35.4,28.2,07.2,0000.0,0000.11,0000.04,0000.01
2022-01-03 01:53:00,,0828.9,5.01,0.00,26.4,25.7,00.0,35.4,28.2,07.2,0000.0,0000.11,0000.04,0000.01
2022-01-03 01:54:00,,0828.9,4.99,0.00,26.4,25.7,00.0,35.4,28.2,06.9,0000.0,0000.11,0000.04,0000.01
2022-01-03 01:55:00,,0828.9,5.00,0.00,26.5,25.7,00.0,35.4,28.2,06.6,0000.0,0000.14,0000.05,0000.01
2022-01-03 01:56:00,,0828.9,5.00,0.00,26.4,25.7,00.0,35.4,28.1,06.6,0000.0,0000.13,0000.05,0000.00
2022-01-03 01:57:00,,0828.9,5.00,0.00,26.4,25.7,00.0,35.4,28.1,06.6,0000.0,0000.12,0000.04,0000.00
2022-01-03 01:58:00,,0828.9,5.01,0.00,26.4,25.7,00.0,35.4,28.1,06.5,0000.0,0000.08,0000.03,0000.00
2022-01-03 01:59:00,,0828.9,4.99,0.00,26.4,25.7,00.0,35.4,28.1,06.6,0000.0,0000.09,0000.03,0000.00
